Time,TemperatureF,DewpointF,PressureIn,WindDirection,WindDirectionDegrees,WindSpeedMPH,WindSpeedGustMPH,Humidity,HourlyPrecipIn,Conditions,Clouds,dailyrainin,SoftwareType,DateUTC
2013-03-29 00:02:00,46.0,45.0,30.14,NNW,339,0.0,0.0,97,0.00,,,0.25,,2013-03-29 07:02:00,
2013-03-29 00:11:00,46.0,45.0,30.14,NNW,339,0.0,0.0,97,0.00,,,0.25,,2013-03-29 07:11:00,
2013-03-29 00:21:00,46.0,45.0,30.15,NNW,340,0.0,0.0,97,0.00,,,0.25,,2013-03-29 07:21:00,
2013-03-29 00:32:00,46.0,45.0,30.15,NNW,340,0.0,0.0,97,0.00,,,0.25,,2013-03-29 07:32:00,
2013-03-29 00:42:00,46.0,45.0,30.15,NNW,340,0.0,0.0,97,0.00,,,0.25,,2013-03-29 07:42:00,
2013-03-29 00:52:00,46.0,45.0,30.16,NNW,340,0.0,0.0,97,0.00,,,0.25,,2013-03-29 07:52:00,
2013-03-29 01:01:00,46.0,45.0,30.16,NNW,340,0.0,0.0,97,0.00,,,0.25,,2013-03-29 08:01:00,
2013-03-29 01:11:00,46.0,45.0,30.16,NNW,340,0.0,0.0,97,0.00,,,0.25,,2013-03-29 08:11:00,
2013-03-29 01:22:00,46.0,45.0,30.16,NNW,340,0.0,0.0,97,0.00,,,0.16,,2013-03-29 08:22:00,
2013-03-29 01:32:00,46.0,45.0,30.16,NNW,340,0.0,0.0,97,0.00,,,0.16,,2013-03-29 08:32:00,
2013-03-29 01:42:00,46.0,45.0,30.16,NNW,340,0.0,0.0,97,0.00,,,0.16,,2013-03-29 08:42:00,
2013-03-29 01:52:00,46.0,45.0,30.16,NNW,340,0.0,0.0,97,0.00,,,0.16,,2013-03-29 08:52:00,
2013-03-29 02:02:00,46.0,45.0,30.16,NNW,340,0.0,0.0,97,0.00,,,0.16,,2013-03-29 09:02:00,
2013-03-29 02:12:00,46.0,45.0,30.16,NNW,340,0.0,0.0,97,0.00,,,0.16,,2013-03-29 09:12:00,
2013-03-29 02:22:00,46.0,45.0,30.17,NW,323,0.0,0.0,97,0.00,,,0.01,,2013-03-29 09:22:00,
2013-03-29 02:32:00,46.0,45.0,30.17,NW,323,0.0,0.0,97,0.00,,,0.01,,2013-03-29 09:32:00,
2013-03-29 02:42:00,46.0,45.0,30.17,NW,323,0.0,0.0,97,0.00,,,0.01,,2013-03-29 09:42:00,
2013-03-29 02:52:00,45.0,44.0,30.18,NW,323,0.0,0.0,97,0.00,,,0.01,,2013-03-29 09:52:00,
2013-03-29 03:02:00,45.0,44.0,30.18,NW,323,0.0,0.0,97,0.00,,,0.01,,2013-03-29 10:02:00,
2013-03-29 03:12:00,45.0,44.0,30.18,NW,323,0.0,0.0,97,0.00,,,0.01,,2013-03-29 10:12:00,
2013-03-29 03:22:00,45.0,44.0,30.18,NW,323,0.0,0.0,98,0.00,,,0.00,,2013-03-29 10:22:00,
2013-03-29 03:33:00,45.0,44.0,30.18,NW,323,0.0,0.0,98,0.00,,,0.00,,2013-03-29 10:33:00,
2013-03-29 03:42:00,45.0,44.0,30.18,NW,323,0.0,0.0,98,0.00,,,0.00,,2013-03-29 10:42:00,
2013-03-29 03:53:00,45.0,44.0,30.18,NW,323,0.0,0.0,98,0.01,,,0.01,,2013-03-29 10:53:00,
2013-03-29 04:02:00,45.0,44.0,30.19,NW,323,0.0,0.0,98,0.03,,,0.03,,2013-03-29 11:02:00,
2013-03-29 04:12:00,45.0,44.0,30.19,NW,323,0.0,0.0,98,0.03,,,0.03,,2013-03-29 11:12:00,
2013-03-29 04:22:00,45.0,44.0,30.19,NW,323,0.0,0.0,98,0.03,,,0.03,,2013-03-29 11:22:00,
2013-03-29 04:32:00,45.0,44.0,30.19,NW,323,0.0,0.0,98,0.03,,,0.03,,2013-03-29 11:32:00,
2013-03-29 04:42:00,45.0,44.0,30.19,NW,323,0.0,0.0,98,0.03,,,0.03,,2013-03-29 11:42:00,
2013-03-29 04:52:00,45.0,44.0,30.19,NW,323,0.0,0.0,98,0.02,,,0.03,,2013-03-29 11:52:00,
2013-03-29 05:02:00,45.0,44.0,30.19,NW,323,0.0,0.0,98,0.00,,,0.03,,2013-03-29 12:02:00,
2013-03-29 05:12:00,45.0,44.0,30.19,NW,323,0.0,0.0,98,0.00,,,0.03,,2013-03-29 12:12:00,
2013-03-29 05:22:00,45.0,44.0,30.19,NW,323,0.0,0.0,98,0.00,,,0.03,,2013-03-29 12:22:00,
2013-03-29 05:32:00,45.0,44.0,30.20,NW,323,0.0,0.0,98,0.00,,,0.03,,2013-03-29 12:32:00,
2013-03-29 05:42:00,45.0,44.0,30.20,NW,323,0.0,0.0,98,0.00,,,0.03,,2013-03-29 12:42:00,
2013-03-29 05:52:00,45.0,44.0,30.20,NW,323,0.0,0.0,98,0.00,,,0.03,,2013-03-29 12:52:00,
2013-03-29 06:02:00,45.0,44.0,30.20,NW,323,0.0,0.0,98,0.00,,,0.03,,2013-03-29 13:02:00,
2013-03-29 06:12:00,45.0,44.0,30.20,NW,323,0.0,0.0,98,0.00,,,0.03,,2013-03-29 13:12:00,
2013-03-29 06:22:00,45.0,44.0,30.21,NW,323,0.0,0.0,98,0.00,,,0.03,,2013-03-29 13:22:00,
2013-03-29 06:32:00,45.0,44.0,30.21,NW,323,0.0,0.0,98,0.00,,,0.03,,2013-03-29 13:32:00,
2013-03-29 06:42:00,45.0,44.0,30.21,NW,323,0.0,0.0,98,0.00,,,0.03,,2013-03-29 13:42:00,
2013-03-29 06:52:00,45.0,44.0,30.21,NNW,327,0.0,0.0,98,0.00,,,0.03,,2013-03-29 13:52:00,
2013-03-29 07:02:00,45.0,44.0,30.21,NNW,328,0.0,0.0,98,0.00,,,0.03,,2013-03-29 14:02:00,
2013-03-29 07:12:00,45.0,44.0,30.21,NNW,328,0.0,0.0,98,0.00,,,0.03,,2013-03-29 14:12:00,
2013-03-29 07:22:00,45.0,44.0,30.21,NNW,327,0.0,0.0,98,0.00,,,0.03,,2013-03-29 14:22:00,
2013-03-29 07:32:00,44.0,43.0,30.22,NW,323,0.0,0.0,98,0.00,,,0.03,,2013-03-29 14:32:00,
2013-03-29 07:42:00,44.0,43.0,30.22,NW,323,0.0,0.0,98,0.00,,,0.03,,2013-03-29 14:42:00,
2013-03-29 07:52:00,44.0,43.0,30.22,NW,323,0.0,0.0,98,0.00,,,0.03,,2013-03-29 14:52:00,
2013-03-29 08:02:00,45.0,45.0,30.22,NW,323,0.0,0.0,99,0.00,,,0.03,,2013-03-29 15:02:00,
2013-03-29 08:12:00,45.0,45.0,30.22,NW,323,0.0,0.0,99,0.00,,,0.03,,2013-03-29 15:12:00,
2013-03-29 08:22:00,45.0,45.0,30.23,NW,323,0.0,0.0,99,0.00,,,0.03,,2013-03-29 15:22:00,
2013-03-29 08:32:00,46.0,46.0,30.23,NW,324,0.0,0.0,99,0.00,,,0.03,,2013-03-29 15:32:00,
2013-03-29 08:42:00,46.0,46.0,30.23,NW,324,0.0,0.0,99,0.00,,,0.03,,2013-03-29 15:42:00,
2013-03-29 08:53:00,46.0,46.0,30.23,WNW,287,0.0,0.0,99,0.00,,,0.03,,2013-03-29 15:53:00,
2013-03-29 09:03:00,47.0,47.0,30.23,WNW,290,0.0,0.0,99,0.00,,,0.03,,2013-03-29 16:03:00,
2013-03-29 09:12:00,47.0,47.0,30.23,WNW,290,0.0,0.0,99,0.00,,,0.03,,2013-03-29 16:12:00,
2013-03-29 09:22:00,47.0,46.0,30.23,WNW,288,0.0,0.0,98,0.00,,,0.03,,2013-03-29 16:22:00,
2013-03-29 09:32:00,48.0,47.0,30.23,NE,45,0.0,0.0,96,0.00,,,0.03,,2013-03-29 16:32:00,
2013-03-29 09:42:00,48.0,47.0,30.23,NE,45,0.0,0.0,96,0.00,,,0.03,,2013-03-29 16:42:00,
2013-03-29 09:53:00,48.0,46.0,30.24,SW,226,0.0,0.0,94,0.00,,,0.03,,2013-03-29 16:53:00,
2013-03-29 10:02:00,49.0,47.0,30.24,ENE,78,0.0,0.0,93,0.00,,,0.03,,2013-03-29 17:02:00,
2013-03-29 10:12:00,49.0,47.0,30.24,ENE,78,0.0,0.0,93,0.00,,,0.03,,2013-03-29 17:12:00,
2013-03-29 10:22:00,50.0,48.0,30.24,WNW,292,0.0,2.0,94,0.00,,,0.03,,2013-03-29 17:22:00,
2013-03-29 10:32:00,51.0,49.0,30.24,NNW,344,0.0,0.0,93,0.00,,,0.03,,2013-03-29 17:32:00,
2013-03-29 10:42:00,51.0,49.0,30.24,NNW,344,0.0,0.0,93,0.00,,,0.03,,2013-03-29 17:42:00,
2013-03-29 10:52:00,51.0,48.0,30.24,ENE,60,0.0,4.0,91,0.00,,,0.03,,2013-03-29 17:52:00,
2013-03-29 11:02:00,51.0,48.0,30.24,SW,235,0.0,6.0,90,0.00,,,0.03,,2013-03-29 18:02:00,
2013-03-29 11:12:00,51.0,48.0,30.24,SW,235,0.0,6.0,90,0.00,,,0.03,,2013-03-29 18:12:00,
2013-03-29 11:22:00,52.0,49.0,30.24,WSW,241,0.0,3.0,88,0.00,,,0.03,,2013-03-29 18:22:00,
2013-03-29 11:32:00,53.0,50.0,30.24,NW,320,0.0,7.0,88,0.00,,,0.03,,2013-03-29 18:32:00,
2013-03-29 11:42:00,53.0,50.0,30.24,NW,320,0.0,7.0,88,0.00,,,0.03,,2013-03-29 18:42:00,
2013-03-29 11:52:00,55.0,49.0,30.24,NW,307,1.0,6.0,80,0.00,,,0.03,,2013-03-29 18:52:00,
2013-03-29 12:02:00,55.0,49.0,30.24,NE,34,0.0,6.0,80,0.00,,,0.03,,2013-03-29 19:02:00,
2013-03-29 12:12:00,55.0,49.0,30.24,East,89,0.0,3.0,80,0.00,,,0.03,,2013-03-29 19:12:00,
2013-03-29 12:22:00,55.0,49.0,30.24,East,89,0.0,3.0,80,0.00,,,0.03,,2013-03-29 19:22:00,
2013-03-29 12:32:00,56.0,49.0,30.24,WNW,282,0.0,6.0,78,0.00,,,0.03,,2013-03-29 19:32:00,
2013-03-29 12:42:00,56.0,49.0,30.24,WNW,282,0.0,6.0,78,0.00,,,0.03,,2013-03-29 19:42:00,
2013-03-29 12:52:00,57.0,49.0,30.24,NW,309,0.0,1.0,75,0.00,,,0.03,,2013-03-29 19:52:00,
2013-03-29 13:02:00,57.0,50.0,30.23,WNW,297,0.0,5.0,76,0.00,,,0.03,,2013-03-29 20:02:00,
2013-03-29 13:11:00,57.0,50.0,30.23,WNW,297,0.0,5.0,76,0.00,,,0.03,,2013-03-29 20:11:00,
2013-03-29 13:22:00,58.0,49.0,30.23,NNE,24,0.0,6.0,72,0.00,,,0.03,,2013-03-29 20:22:00,
2013-03-29 13:32:00,61.0,50.0,30.23,WNW,300,0.0,3.0,66,0.00,,,0.03,,2013-03-29 20:32:00,
2013-03-29 13:42:00,61.0,50.0,30.23,WNW,300,0.0,3.0,66,0.00,,,0.03,,2013-03-29 20:42:00,
2013-03-29 13:52:00,59.0,48.0,30.22,WSW,237,2.0,5.0,66,0.00,,,0.03,,2013-03-29 20:52:00,
2013-03-29 14:02:00,60.0,48.0,30.22,WSW,252,1.0,6.0,65,0.00,,,0.03,,2013-03-29 21:02:00,
2013-03-29 14:11:00,60.0,48.0,30.22,WSW,252,1.0,6.0,65,0.00,,,0.03,,2013-03-29 21:11:00,
2013-03-29 14:22:00,61.0,49.0,30.22,WNW,285,0.0,3.0,64,0.00,,,0.03,,2013-03-29 21:22:00,
2013-03-29 14:32:00,61.0,48.0,30.22,West,268,0.0,5.0,63,0.00,,,0.03,,2013-03-29 21:32:00,
2013-03-29 14:42:00,61.0,48.0,30.22,West,268,0.0,5.0,63,0.00,,,0.03,,2013-03-29 21:42:00,
2013-03-29 14:53:00,61.0,47.0,30.22,WSW,258,2.0,7.0,61,0.00,,,0.03,,2013-03-29 21:53:00,
2013-03-29 15:02:00,62.0,45.0,30.21,ENE,66,0.0,5.0,54,0.00,,,0.03,,2013-03-29 22:02:00,
2013-03-29 15:12:00,62.0,45.0,30.21,ENE,66,0.0,5.0,54,0.00,,,0.03,,2013-03-29 22:12:00,
2013-03-29 15:22:00,62.0,46.0,30.21,ENE,63,1.0,5.0,56,0.00,,,0.03,,2013-03-29 22:22:00,
2013-03-29 15:32:00,62.0,45.0,30.20,WNW,302,1.0,5.0,53,0.00,,,0.03,,2013-03-29 22:32:00,
2013-03-29 15:42:00,62.0,45.0,30.20,WNW,302,1.0,5.0,53,0.00,,,0.03,,2013-03-29 22:42:00,
2013-03-29 15:53:00,62.0,45.0,30.20,ENE,72,0.0,5.0,53,0.00,,,0.03,,2013-03-29 22:53:00,
2013-03-29 16:02:00,63.0,44.0,30.19,WNW,292,1.0,5.0,50,0.00,,,0.03,,2013-03-29 23:02:00,
2013-03-29 16:11:00,63.0,44.0,30.19,WNW,292,1.0,5.0,50,0.00,,,0.03,,2013-03-29 23:11:00,
2013-03-29 16:22:00,64.0,45.0,30.19,ENE,68,0.0,4.0,50,0.00,,,0.03,,2013-03-29 23:22:00,
2013-03-29 16:42:00,64.0,43.0,30.19,WNW,296,0.0,6.0,47,0.00,,,0.03,,2013-03-29 23:42:00,
2013-03-29 16:52:00,64.0,43.0,30.19,WNW,292,0.0,5.0,46,0.00,,,0.03,,2013-03-29 23:52:00,
2013-03-29 17:02:00,64.0,43.0,30.19,ENE,74,0.0,4.0,47,0.00,,,0.03,,2013-03-30 00:02:00,
2013-03-29 17:11:00,64.0,43.0,30.19,ENE,74,0.0,4.0,47,0.00,,,0.03,,2013-03-30 00:11:00,
2013-03-29 17:21:00,64.0,45.0,30.19,NNE,32,1.0,7.0,50,0.00,,,0.03,,2013-03-30 00:21:00,
2013-03-29 17:32:00,64.0,45.0,30.19,North,11,3.0,7.0,50,0.00,,,0.03,,2013-03-30 00:32:00,
2013-03-29 17:42:00,64.0,45.0,30.19,North,11,3.0,7.0,50,0.00,,,0.03,,2013-03-30 00:42:00,
2013-03-29 17:52:00,63.0,45.0,30.19,West,270,1.0,7.0,51,0.00,,,0.03,,2013-03-30 00:52:00,
2013-03-29 18:02:00,63.0,45.0,30.19,West,274,2.0,6.0,51,0.00,,,0.03,,2013-03-30 01:02:00,
2013-03-29 18:12:00,63.0,45.0,30.19,West,274,2.0,6.0,51,0.00,,,0.03,,2013-03-30 01:12:00,
2013-03-29 18:22:00,62.0,45.0,30.19,NW,324,0.0,6.0,53,0.00,,,0.03,,2013-03-30 01:22:00,
2013-03-29 18:32:00,62.0,45.0,30.18,North,1,0.0,4.0,54,0.00,,,0.03,,2013-03-30 01:32:00,
2013-03-29 18:42:00,62.0,45.0,30.18,North,1,0.0,4.0,54,0.00,,,0.03,,2013-03-30 01:42:00,
2013-03-29 18:52:00,61.0,45.0,30.18,WNW,291,1.0,6.0,55,0.00,,,0.03,,2013-03-30 01:52:00,
2013-03-29 19:02:00,61.0,45.0,30.18,WNW,294,0.0,4.0,56,0.00,,,0.03,,2013-03-30 02:02:00,
2013-03-29 19:12:00,61.0,45.0,30.18,WNW,294,0.0,4.0,56,0.00,,,0.03,,2013-03-30 02:12:00,
2013-03-29 19:22:00,61.0,45.0,30.18,WNW,294,0.0,4.0,56,0.00,,,0.03,,2013-03-30 02:22:00,
2013-03-29 19:32:00,58.0,46.0,30.18,WNW,283,0.0,0.0,65,0.00,,,0.03,,2013-03-30 02:32:00,
2013-03-29 19:42:00,58.0,46.0,30.18,WNW,283,0.0,0.0,65,0.00,,,0.03,,2013-03-30 02:42:00,
2013-03-29 19:53:00,55.0,45.0,30.19,WNW,283,0.0,0.0,70,0.00,,,0.03,,2013-03-30 02:53:00,
2013-03-29 20:02:00,54.0,46.0,30.19,ENE,75,0.0,0.0,74,0.00,,,0.03,,2013-03-30 03:02:00,
2013-03-29 20:11:00,52.0,46.0,30.19,East,89,0.0,0.0,80,0.00,,,0.03,,2013-03-30 03:11:00,
2013-03-29 20:21:00,52.0,46.0,30.19,East,89,0.0,0.0,80,0.00,,,0.03,,2013-03-30 03:21:00,
2013-03-29 20:32:00,51.0,46.0,30.19,East,86,0.0,0.0,82,0.00,,,0.03,,2013-03-30 03:32:00,
2013-03-29 20:43:00,51.0,46.0,30.19,East,86,0.0,0.0,82,0.00,,,0.03,,2013-03-30 03:43:00,
2013-03-29 20:53:00,51.0,46.0,30.19,East,86,0.0,0.0,82,0.00,,,0.03,,2013-03-30 03:53:00,
2013-03-29 21:02:00,50.0,46.0,30.20,ENE,58,0.0,0.0,86,0.00,,,0.03,,2013-03-30 04:02:00,
2013-03-29 21:12:00,50.0,46.0,30.20,ENE,58,0.0,0.0,86,0.00,,,0.03,,2013-03-30 04:12:00,
2013-03-29 21:23:00,49.0,45.0,30.20,ENE,73,0.0,0.0,87,0.00,,,0.03,,2013-03-30 04:23:00,
2013-03-29 21:32:00,49.0,46.0,30.21,ENE,73,0.0,0.0,88,0.00,,,0.03,,2013-03-30 04:32:00,
2013-03-29 21:42:00,49.0,46.0,30.21,ENE,73,0.0,0.0,88,0.00,,,0.03,,2013-03-30 04:42:00,
2013-03-29 21:52:00,48.0,45.0,30.21,ESE,104,0.0,0.0,88,0.00,,,0.03,,2013-03-30 04:52:00,
2013-03-29 22:02:00,48.0,45.0,30.21,East,81,0.0,0.0,89,0.00,,,0.03,,2013-03-30 05:02:00,
2013-03-29 22:12:00,48.0,45.0,30.21,East,81,0.0,0.0,89,0.00,,,0.03,,2013-03-30 05:12:00,
2013-03-29 22:22:00,48.0,45.0,30.21,East,101,0.0,0.0,89,0.00,,,0.03,,2013-03-30 05:22:00,
2013-03-29 22:32:00,49.0,45.0,30.22,East,94,0.0,0.0,86,0.00,,,0.03,,2013-03-30 05:32:00,
2013-03-29 22:42:00,49.0,45.0,30.22,East,94,0.0,0.0,86,0.00,,,0.03,,2013-03-30 05:42:00,
2013-03-29 22:52:00,49.0,45.0,30.22,ENE,63,0.0,0.0,85,0.00,,,0.03,,2013-03-30 05:52:00,
2013-03-29 23:01:00,49.0,44.0,30.22,ESE,104,0.0,2.0,84,0.00,,,0.03,,2013-03-30 06:01:00,
2013-03-29 23:11:00,49.0,44.0,30.22,ESE,104,0.0,2.0,84,0.00,,,0.03,,2013-03-30 06:11:00,
2013-03-29 23:22:00,48.0,44.0,30.22,SW,220,0.0,0.0,85,0.00,,,0.03,,2013-03-30 06:22:00,
2013-03-29 23:32:00,48.0,44.0,30.22,ESE,111,0.0,3.0,85,0.00,,,0.03,,2013-03-30 06:32:00,
2013-03-29 23:42:00,48.0,44.0,30.22,ESE,111,0.0,3.0,85,0.00,,,0.03,,2013-03-30 06:42:00,
2013-03-29 23:52:00,48.0,44.0,30.22,West,276,0.0,0.0,85,0.00,,,0.03,,2013-03-30 06:52:00,